Weather History for KP60 - November, 2013

Change the Weather History Date:

Saturday, November 9, 2013

  Actual Average Record
Temperature  
Mean Temperature 28 °F 26 °F  
Max Temperature 35 °F 36 °F 50 °F (2007)
Min Temperature 20 °F 15 °F -1 °F (1998)
Degree Days  
Heating Degree Days 37 39  
Month to date heating degree days 377 338  
Since 1 July heating degree days 2343 2386  
Cooling Degree Days 0 0  
Month to date cooling degree days 0 0  
Year to date cooling degree days 0 0  
Moisture  
Dew Point 20 °F    
Average Humidity 75    
Maximum Humidity 92    
Minimum Humidity 58    
Precipitation  
Precipitation 0.00 in 0.07 in 0.16 in (2012)
Month to date precipitation 0.63 0.64  
Year to date precipitation 18.49 17.36  
Sea Level Pressure  
Sea Level Pressure 30.25 in    
Wind  
Wind Speed 2 mph (West)    
Max Wind Speed 9 mph    
Max Gust Speed 16 mph    
T = Trace of Precipitation, MM = Missing Value Source: NWS Daily Summary

Daily Weather History Graph

Daily Weather History Graph

Search for Another Location

Airport or City:

Trip Planner

Search our weather history database for the weather conditions in past years. The results will help you decide how hot, cold, wet, or windy it might be!

Date:

Astronomy

Nov. 09, 2013 Rise Set
Actual Time 7:10 AM MST 5:00 PM MST
Civil Twilight 6:39 AM MST 5:31 PM MST
Nautical Twilight 6:04 AM MST 6:05 PM MST
Astronomical Twilight 5:30 AM MST 6:40 PM MST
Moon 12:46 PM MST (11/9) 11:37 PM MST (11/9)
Length of Visible Light 10h 51m
Length of Day
9h 49m
Waxing Crescent, 45% of the Moon is Illuminated
Nov 9
Waxing Crescent
Nov 9
First Quarter
Nov 17
Full
Nov 25
Last Quarter
Dec 2
New

Hourly Weather History & Observations

Time (MST) Temp. Windchill Dew Point Humidity Pressure Visibility Wind Dir Wind Speed Gust Speed Precip Events Conditions
12:56 AM 27.0 °F 23.0 °F 19.0 °F 72% 30.16 in - WNW 3.5 mph - N/A   Unknown
1:56 AM 27.0 °F 23.0 °F 19.9 °F 75% 30.16 in - Variable 3.5 mph - N/A   Unknown
2:56 AM 27.0 °F 23.0 °F 19.0 °F 72% 30.17 in - Variable 3.5 mph - N/A   Unknown
3:56 AM 27.0 °F 21.6 °F 19.9 °F 75% 30.18 in - West 4.6 mph - N/A   Unknown
4:56 AM 27.0 °F - 19.9 °F 75% 30.21 in - Calm Calm - N/A   Unknown
5:56 AM 26.1 °F - 19.9 °F 78% 30.22 in - Calm Calm - N/A   Unknown
6:56 AM 27.0 °F - 19.0 °F 72% 30.22 in - Calm Calm - N/A   Unknown
7:56 AM 26.1 °F - 21.0 °F 81% 30.24 in - Calm Calm - N/A   Unknown
8:56 AM 27.0 °F - 19.0 °F 72% 30.26 in - Calm Calm - N/A   Unknown
9:56 AM 30.0 °F - 18.0 °F 61% 30.24 in - Calm Calm - N/A   Unknown
10:56 AM 32.0 °F 27.5 °F 19.0 °F 59% 30.25 in - Variable 4.6 mph - N/A   Unknown
11:56 AM 32.0 °F 27.5 °F 19.9 °F 61% 30.25 in - Variable 4.6 mph - N/A   Unknown
12:56 PM 33.1 °F 26.1 °F 21.0 °F 61% 30.25 in - WSW 8.1 mph - N/A   Unknown
1:56 PM 33.1 °F 28.7 °F 21.0 °F 61% 30.24 in - Variable 4.6 mph - N/A   Unknown
2:56 PM 35.1 °F - 23.0 °F 61% 30.23 in - Calm Calm - N/A   Unknown
3:56 PM 34.0 °F 28.0 °F 23.0 °F 64% 30.24 in - Variable 6.9 mph - N/A   Unknown
4:56 PM 34.0 °F 31.0 °F 21.9 °F 61% 30.25 in - Variable 3.5 mph - N/A   Unknown
5:56 PM 28.9 °F 25.2 °F 23.0 °F 78% 30.29 in - NW 3.5 mph - N/A   Unknown
6:56 PM 26.1 °F - 21.9 °F 84% 30.31 in - Calm Calm - N/A   Unknown
7:56 PM 24.1 °F - 21.0 °F 88% 30.34 in - Calm Calm - N/A   Unknown
8:56 PM 21.0 °F - 19.0 °F 92% 30.36 in - Calm Calm - N/A   Unknown
9:56 PM 21.0 °F - 18.0 °F 88% 30.34 in - Calm Calm - N/A   Unknown
10:56 PM 21.9 °F - 19.9 °F 92% 30.34 in - Calm Calm - N/A   Unknown
11:56 PM 21.9 °F - 19.9 °F 92% 30.34 in - Calm Calm - N/A   Unknown